Tracking 31011 objects as of 12-Jul-2025
HD Live streaming from Space Station
objects crossing your sky now

STARLINK-32098

Track STARLINK-32098 now!
10-day predictions
STARLINK-32098 is classified as:


NORAD ID: 59704
Int'l Code: 2024-086Y
Perigee: 489.4 km
Apogee: 491.0 km
Inclination: 43.0 °
Period: 94.3 minutes
Semi major axis: 6861 km
RCS: Unknown
Launch date: May 8, 2024
Source: United States (US)
Launch site: AIR FORCE EASTERN TEST RANGE (AFETR)
Your satellite tracking list
Your tracking list is empty




NASA's NSSDC Master Catalog

Two Line Element Set (TLE):
1 59704U 24086Y   25193.09290211  .00000100  00000-0  13165-4 0  9990
2 59704  43.0011 338.8632 0001184 275.3170  84.7546 15.27584247 67314
Source of the keplerian elements: AFSPC